Regional Weather Roundup
Issued by NWS State College, PA

Home | Current Version | Previous Version | Graphics & Text | Print | Product List | Glossary On
Versions: 1 2 3 4 5 6 7 8 9 10 11 12 13 14 15 16 17 18 19 20 21 22 23 24 25 26 27 28 29 30 31 32 33 34 35 36 37 38 39 40 41 42 43 44 45 46 47 48 49 50
000
ASUS41 KCTP 260403
RWRCTP

REGIONAL WEATHER ROUNDUP
NATIONAL WEATHER SERVICE STATE COLLEGE PA
1100 PM EST TUE NOV 25 2014

Note: "fair" indicates few or no clouds below 12,000 feet with no
significant weather and/or obstructions to visibility.

* = STATION THAT DOES NOT REPORT PRECIPITATION /E.G. RAIN...SNOW...ETC/
    THUNDER OR FOG.

PAZ002>004-007>009-013>016-020>023-029>032-260500-
WESTERN PENNSYLVANIA

CITY           SKY/WX    TMP DP  RH WIND       PRES   REMARKS
ERIE           CLOUDY    35  24  64 SW6       30.21R
MEADVILLE      CLOUDY    32  24  72 NW6       30.17F
FRANKLIN*      MOCLDY    32  23  69 NW6       30.16F
NEW CASTLE       N/A     31  25  78 CALM      30.18F
BEAVER COUNTY  NOT AVBL
BUTLER*        PTCLDY    27  23  86 CALM      30.17S
PITTSBURGH INT MOCLDY    29  24  82 NW3       30.15F
PITTSBURGH     PTCLDY    33  22  63 CALM      30.15S
INDIANA*       CLEAR     30  27  86 CALM      30.20R
LATROBE        PTCLDY    32  27  80 CALM      30.18F
WASHINGTON CO* PTCLDY    27  23  86 CALM      30.17F
$$

PAZ004>006-010>012-017>019-024>028-033>037-041-042-045-046-049>053-260500-
CENTRAL PENNSYLVANIA

CITY           SKY/WX    TMP DP  RH WIND       PRES   REMARKS
BRADFORD       PTCLDY    30  21  69 NW9       30.12R
DUBOIS         PTCLDY    30  23  75 CALM      30.13R
CLEARFIELD     PTCLDY    33  24  69 NW5       30.15R
JOHNSTOWN      MOCLDY    30  23  75 N3        30.11R
ALTOONA        MOCLDY    36  27  69 N3        30.15R
STATE COLLEGE  PTCLDY    35  26  71 W3        30.16R
WILLIAMSPORT   MOCLDY    33  27  78 VRB3      30.18R
SELINSGROVE    CLOUDY    34  30  85 VRB3      30.16R
FT INDIANTOWN  CLOUDY    35  29  81 E2        30.15R
CAPITAL CITY   MOCLDY    37  31  78 SW3       30.15R
HARRISBURG     CLOUDY    38  31  76 CALM      30.15R
YORK           CLOUDY    36  32  85 CALM      30.14R
$$

PAZ038>040-043-044-047-048-054-055-060>062-067>071-260500-
EASTERN PENNSYLVANIA

CITY           SKY/WX    TMP DP  RH WIND       PRES   REMARKS
SCRANTON       MOCLDY    39  27  62 CALM      30.13R
MOUNT POCONO   MOCLDY    40  26  57 W6G17     30.10R
ALLENTOWN      CLOUDY    38  29  70 CALM      30.16R
QUAKERTOWN*    CLOUDY    36  32  87 CALM      30.17R
READING        CLOUDY    40  31  70 CALM      30.15R
LANCASTER      CLOUDY    36  32  85 E3        30.15R
COATESVILLE    CLOUDY    41  32  70 CALM      30.16R
POTTSTOWN      CLOUDY    40  33  76 NE3       30.17R
BLUE BELL      CLOUDY    41  37  87 CALM      30.17R
DOYLESTOWN     CLOUDY    39  34  82 CALM      30.17R
WILLOW GROVE   NOT AVBL
NORTH PHILA    CLOUDY    47  32  56 CALM      30.19R
PHILADELPHIA   CLOUDY    48  34  58 S3        30.18R
$$


USA.gov is the U.S. government's official web portal to all federal, state and local government web resources and services.